SVR6509 UWLL-UWUU

Flight info

Callsign SVR6509
Flight time N/A
Altitude 35000
Route RUBEK1L RUBEK L749 BUGOT L994 DILUP
Aircraft A321/M-SDE3FGHIRWY/LB1

Departure

Time 2026-04-30 19:52
Airport Ulyanovsk Baratayevka Airport (UWLL)

Arrival

Time N/A
Airport Ufa International Airport (UWUU)
Time Latitude Longitude Altitude Speed Heading
2026-04-30 19:15 54.28593 48.23191 373 ft 0 kts 123°
2026-04-30 19:25 54.28592 48.23192 373 ft 0 kts 123°
2026-04-30 19:31 54.28569 48.23227 373 ft 6 kts 159°
2026-04-30 19:32 54.28542 48.23221 373 ft 6 kts 173°
2026-04-30 19:32 54.28523 48.23252 373 ft 0 kts 118°
2026-04-30 19:32 54.28521 48.23257 373 ft 2 kts 118°
2026-04-30 19:32 54.28494 48.23348 375 ft 15 kts 117°
2026-04-30 19:33 54.28442 48.23497 378 ft 0 kts 124°
2026-04-30 19:33 54.28426 48.23539 380 ft 8 kts 123°
2026-04-30 19:33 54.28392 48.23627 382 ft 11 kts 122°
2026-04-30 19:33 54.28350 48.23742 385 ft 0 kts 122°
2026-04-30 19:34 54.28273 48.23947 388 ft 28 kts 122°
2026-04-30 19:35 54.28162 48.24188 386 ft 20 kts 161°
2026-04-30 19:35 54.28119 48.24177 388 ft 5 kts 201°
2026-04-30 19:35 54.28050 48.24106 392 ft 18 kts 213°
2026-04-30 19:35 54.27935 48.23983 397 ft 20 kts 211°
2026-04-30 19:36 54.27812 48.23850 398 ft 22 kts 212°
2026-04-30 19:36 54.27667 48.23693 400 ft 26 kts 212°
2026-04-30 19:36 54.27384 48.23389 420 ft 22 kts 212°
2026-04-30 19:37 54.27255 48.23251 417 ft 22 kts 212°
2026-04-30 19:37 54.27127 48.23113 425 ft 22 kts 212°
2026-04-30 19:37 54.26999 48.22978 423 ft 22 kts 212°
2026-04-30 19:37 54.26868 48.22836 418 ft 23 kts 212°
2026-04-30 19:38 54.26727 48.22684 429 ft 24 kts 212°
2026-04-30 19:38 54.26583 48.22530 426 ft 24 kts 212°
2026-04-30 19:38 54.26460 48.22399 439 ft 25 kts 212°
2026-04-30 19:38 54.26386 48.22309 442 ft 0 kts 230°
2026-04-30 19:45 54.26385 48.22307 442 ft 1 kts 230°
2026-04-30 19:45 54.26376 48.22262 430 ft 7 kts 258°
2026-04-30 19:45 54.26375 48.22220 438 ft 0 kts 271°
2026-04-30 19:48 54.26376 48.22195 439 ft 4 kts 272°
2026-04-30 19:49 54.26377 48.22138 445 ft 0 kts 271°
2026-04-30 19:49 54.26377 48.22135 446 ft 0 kts 273°
2026-04-30 19:50 54.26377 48.22134 446 ft 1 kts 273°
2026-04-30 19:50 54.26378 48.22096 446 ft 6 kts 272°
2026-04-30 19:50 54.26383 48.22009 447 ft 9 kts 287°
2026-04-30 19:50 54.26441 48.21953 433 ft 12 kts
2026-04-30 19:51 54.26486 48.21989 431 ft 0 kts 32°
2026-04-30 19:51 54.26487 48.21989 431 ft 1 kts 32°
2026-04-30 19:52 54.26571 48.22079 434 ft 49 kts 32°
2026-04-30 19:52 54.27099 48.22648 423 ft 126 kts 32°
2026-04-30 19:52 54.28017 48.23634 509 ft 175 kts 32°
2026-04-30 19:52 54.29046 48.24752 1270 ft 180 kts 32°
2026-04-30 19:53 54.30126 48.25929 2136 ft 187 kts 34°
2026-04-30 19:53 54.31229 48.27140 3047 ft 192 kts 34°
2026-04-30 19:53 54.32388 48.28398 3896 ft 199 kts 30°
2026-04-30 19:53 54.33387 48.29086 4347 ft 215 kts 12°
2026-04-30 19:54 54.35001 48.29019 4235 ft 232 kts 342°
2026-04-30 19:54 54.36342 48.27531 3963 ft 230 kts 310°
2026-04-30 19:54 54.37027 48.25106 3780 ft 230 kts 278°
2026-04-30 19:54 54.36854 48.22401 3847 ft 233 kts 244°
2026-04-30 19:55 54.35827 48.20273 4273 ft 235 kts 214°
2026-04-30 19:55 54.34359 48.19051 5148 ft 241 kts 197°
2026-04-30 19:55 54.32728 48.17979 5744 ft 260 kts 203°
2026-04-30 19:55 54.31066 48.16671 6628 ft 264 kts 204°
2026-04-30 19:56 54.29391 48.15402 7628 ft 264 kts 202°
2026-04-30 19:56 54.27689 48.14208 8649 ft 264 kts 201°
2026-04-30 19:56 54.25949 48.13061 9567 ft 265 kts 200°
2026-04-30 19:56 54.24220 48.11958 9949 ft 265 kts 200°
2026-04-30 19:57 54.22489 48.10869 10074 ft 265 kts 200°
2026-04-30 19:57 54.20958 48.09910 10105 ft 271 kts 200°
2026-04-30 19:57 54.19073 48.08730 10101 ft 303 kts 200°
2026-04-30 19:57 54.17056 48.07469 10102 ft 309 kts 200°
2026-04-30 19:58 54.15078 48.06246 10080 ft 295 kts 198°
2026-04-30 19:58 54.13108 48.05848 10048 ft 280 kts 175°
2026-04-30 19:58 54.11874 48.06348 10023 ft 273 kts 160°
2026-04-30 19:58 54.10283 48.08075 10006 ft 276 kts 138°
2026-04-30 19:59 54.09203 48.10825 10147 ft 287 kts 114°
2026-04-30 19:59 54.08845 48.14296 10396 ft 316 kts 90°
2026-04-30 19:59 54.09376 48.22117 11426 ft 344 kts 85°
2026-04-30 20:00 54.09692 48.26220 12231 ft 347 kts 85°
2026-04-30 20:00 54.09999 48.30332 13051 ft 350 kts 85°
2026-04-30 20:00 54.10297 48.34469 13864 ft 354 kts 85°
2026-04-30 20:00 54.10589 48.38590 14538 ft 358 kts 86°
2026-04-30 20:01 54.11188 48.47073 15849 ft 366 kts 86°
2026-04-30 20:01 54.11494 48.51447 16511 ft 371 kts 87°
2026-04-30 20:01 54.11798 48.55840 17144 ft 375 kts 87°
2026-04-30 20:02 54.12410 48.64775 18343 ft 385 kts 88°